Погода в Нанте

Франция     47°13′09″N   1°33′22″W
темп.,
°C
ветер,
м/с
пор.,
м/с
влажн.,
%
обл.,
%
осадки,
мм/ч
давл.,
гПа
погр.,
м
9 марта, вт
вт901:00−1ссв23920 0.0 102335
04:00−2ссв23931 0.0 102224
07:00−2с22931 0.0 102322
10:00+3ссв23760 0.0 1023267
13:00+8св22610 0.0 1023946
16:00+10в015712 0.0 10221253
19:00+4з238639 0.0 102244
22:00+2з229069 0.0 102322
10 марта, ср
ср1001:00+1юз229150 0.0 102222
04:00+1ю3392100 0.0 102166
07:00+1ю4793100 0.0 1021111
10:00+7ююз61078100 0.0 1021741
13:00+10ююз71071100 0.0 1020940
16:00+9ююз71377100 0.0 1018723
19:00+8ююз81583100 0.1 1016684
22:00+10ююз81697100 0.8 1015621
11 марта, чт
чт1101:00+12юз91693100 1.3 1013857
04:00+12зюз101894100 0.6 1012874
07:00+12зюз91692100 0.9 10121105
10:00+10зюз71788100 0.7 10131312
13:00+13з11177285 0.9 10141836
16:00+12з10166540 0.3 10151823
19:00+8зюз5138020 0.4 1017647
22:00+6зюз49894 0.0 1019174
12 марта, пт
пт1201:00+6юз48887 0.1 1019169
04:00+5юз47919 0.1 1017141
07:00+5юз49925 0.1 1017170
10:00+10зюз812743 0.1 10171329
13:00+11зюз10147351 1.1 10171501
16:00+11зюз10157170 0.9 10161517
19:00+8зюз6138385 1.1 1016773
22:00+7зюз5149099 0.4 1016678
13 марта, сб
сб1301:00+8зюз6148987 0.8 1016859
04:00+9зюз8158895 0.4 1014986
07:00+9зюз7158898 0.8 10131062
10:00+10зюз101885100 0.6 10121398
13:00+10зюз101784100 1.5 10121321
16:00+10зюз111890100 1.4 10101267
19:00+8з81680100 1.8 10111226
22:00+5з5138786 0.2 1014688